User: anonymous   Login
Location: Acton
(51.4942°N, 0.2232°W)
Time: 20:29:52
(UTC+00:00)
Language:

Cosmos 2026 Rocket - Orbit

View from above orbital plane
View from above orbital plane
View from above satellite
View from above satellite

Ground track
Ground track

The orbit data is extracted from the following two-line orbital elements,

1 20046U 89042B   20332.79616859 +.00000004 +00000-0 -11100-4 0  9998
2 20046 082.9375 084.4130 0042993 135.3984 225.0647 13.78204122582548
Epoch (UTC): 27 November 2020 19:06:28
Eccentricity: 0.0042993
inclination: 82.9375°
perigee height: 938 km
apogee height: 1002 km
right ascension of ascending node: 84.4130°
argument of perigee: 135.3984°
revolutions per day: 13.78204122
mean anomaly at epoch: 225.0647°
orbit number at epoch: 58254

The dashed part of the orbit path shows where the satellite is in the earth's shadow,  

DLR